Location: Unspecified
(0.0000°N, 0.0000°E)
Time: 21:41:08
(UTC+00:00)

Envisat - Pass Details

Date: 10 August 2021
Orbit: 764 x 766 km, 98.2° (Epoch: 16 September)

Event Time Altitude Azimuth Distance (km) Brightness Sun altitude
Rises 04:21:05 0° 27° (NNE) 3,213 6.9 -25.1°
Reaches altitude 10° 04:23:32 10° 35° (NE) 2,290 6.1 -24.5°
Maximum altitude 04:28:10 37° 102° (ESE) 1,172 4.4 -23.4°
Drops below altitude 10° 04:32:48 10° 169° (SSE) 2,299 5.4 -22.3°
Sets 04:35:15 0° 177° (S) 3,227 6.1 -21.7°
